Weather History for CYZU - March, 2013

Change the Weather History Date:

Wednesday, March 20, 2013

  Actual Average Record
Temperature  
Mean Temperature 20 °F -  
Max Temperature 30 °F 33 °F 48 °F (1999)
Min Temperature 10 °F 16 °F -14 °F (2002)
Degree Days  
Heating Degree Days 45    
Moisture  
Dew Point 15 °F    
Average Humidity 75    
Maximum Humidity 93    
Minimum Humidity 60    
Precipitation  
Precipitation 0.00 in - - ()
Sea Level Pressure  
Sea Level Pressure 29.53 in    
Wind  
Wind Speed 7 mph ()    
Max Wind Speed 12 mph    
Max Gust Speed 17 mph    
Visibility 14.0 miles    
Events Snow    
Averages and records for this station are not official NWS values.
T = Trace of Precipitation, MM = Missing Value Source: Averaged Metar Reports

Daily Weather History Graph

Daily Weather History Graph

Search for Another Location

Airport or City:

Trip Planner

Search our weather history database for the weather conditions in past years. The results will help you decide how hot, cold, wet, or windy it might be!

Date:

Astronomy

Mar. 20, 2013 Rise Set
Actual Time 7:44 AM MDT 7:57 PM MDT
Civil Twilight 7:09 AM MDT 8:32 PM MDT
Nautical Twilight 6:27 AM MDT 9:15 PM MDT
Astronomical Twilight 5:43 AM MDT 9:59 PM MDT
Moon 12:47 PM MDT (3/20) 4:17 AM MDT (3/20)
Length of Visible Light 13h 23m
Length of Day
12h 12m
First Quarter, 60% of the Moon is Illuminated
Mar 20
First Quarter
Mar 27
Full
Apr 2
Last Quarter
Apr 10
New
Apr 18
First Quarter

Hourly Weather History & Observations

Time (MDT) Temp. Windchill Dew Point Humidity Pressure Visibility Wind Dir Wind Speed Gust Speed Precip Events Conditions
6:00 AM 13 °F - 8 °F 73% 29.67 in 15 mi East 6.9 mph - -   Overcast
6:00 AM 12.2 °F 1.7 °F 8.6 °F 85% 29.67 in 15.0 mi East 6.9 mph - N/A   Overcast
7:00 AM 12.2 °F -0.2 °F 6.8 °F 79% 29.63 in 15.0 mi East 9.2 mph - N/A   Overcast
8:00 AM 12.2 °F 1.7 °F 6.8 °F 79% 29.62 in 15.0 mi ESE 6.9 mph - N/A   Overcast
9:00 AM 12.2 °F 0.7 °F 6.8 °F 79% 29.60 in 15.0 mi ESE 8.1 mph - N/A   Overcast
10:00 AM 14.0 °F 3.9 °F 8.6 °F 79% 29.57 in 12.0 mi East 6.9 mph - N/A   Overcast
11:00 AM 15.8 °F 8.6 °F 10.4 °F 79% 29.56 in 12.0 mi East 4.6 mph - N/A   Overcast
12:00 PM 18 °F - 13 °F 70% 29.52 in 12 mi East 8.1 mph - -   Overcast
12:00 PM 19.4 °F 9.5 °F 12.2 °F 74% 29.52 in 12.0 mi East 8.1 mph - N/A   Overcast
1:00 PM 21.2 °F 10.9 °F 14.0 °F 74% 29.50 in 15.0 mi ESE 9.2 mph - N/A   Overcast
2:00 PM 24.8 °F 15.3 °F 15.8 °F 69% 29.49 in 15.0 mi East 9.2 mph - N/A   Mostly Cloudy
3:00 PM 28.4 °F 18.5 °F 17.6 °F 64% 29.45 in 15.0 mi East 11.5 mph - N/A   Scattered Clouds
4:00 PM 30.2 °F 20.8 °F 19.4 °F 64% 29.44 in 15.0 mi East 11.5 mph - N/A   Mostly Cloudy
5:00 PM 30.2 °F 20.8 °F 21.2 °F 69% 29.44 in 15.0 mi East 11.5 mph 17.3 mph N/A   Mostly Cloudy
6:00 PM 29 °F - 20 °F 60% 29.45 in 15 mi East 11.5 mph - -   Mostly Cloudy
6:00 PM 28.4 °F 18.5 °F 21.2 °F 74% 29.45 in 15.0 mi East 11.5 mph - N/A   Mostly Cloudy
7:00 PM 26.6 °F 17.5 °F 21.2 °F 80% 29.47 in 15.0 mi East 9.2 mph - N/A   Overcast
8:00 PM 26.6 °F 16.2 °F 21.2 °F 80% 29.47 in 15.0 mi East 11.5 mph - N/A   Overcast
9:00 PM 24.8 °F 16.1 °F 21.2 °F 86% 29.50 in 15.0 mi ESE 8.1 mph - N/A   Overcast
9:22 PM - - - N/A% - 12.0 mi ESE 9.2 mph - N/A   Unknown
10:00 PM 23.0 °F 11.7 °F 21.2 °F 93% 29.52 in 10.0 mi East 11.5 mph - N/A Snow Light Snow